TimeMST,TemperatureF,Dew PointF,Humidity,Sea Level PressureIn,VisibilityMPH,Wind Direction,Wind SpeedMPH,Gust SpeedMPH,PrecipitationIn,Events,Conditions,WindDirDegrees,DateUTC
12:53 AM,14.0,7.0,74,30.39,10.0,Calm,Calm,-,N/A,,Clear,0,2013-03-05 07:53:00
1:53 AM,12.0,6.1,77,30.39,10.0,North,3.5,-,N/A,,Clear,350,2013-03-05 08:53:00
2:53 AM,12.0,5.0,73,30.36,10.0,NNW,3.5,-,N/A,,Clear,340,2013-03-05 09:53:00
3:53 AM,10.0,3.9,76,30.37,10.0,NNW,5.8,-,N/A,,Clear,340,2013-03-05 10:53:00
4:53 AM,9.0,3.0,77,30.38,10.0,NNW,5.8,-,N/A,,Clear,330,2013-03-05 11:53:00
6:53 AM,10.0,3.0,73,30.40,10.0,North,5.8,-,N/A,,Clear,350,2013-03-05 13:53:00
7:53 AM,10.9,3.9,73,30.40,10.0,North,6.9,-,N/A,,Clear,360,2013-03-05 14:53:00
8:53 AM,15.1,7.0,70,30.38,10.0,North,9.2,-,N/A,,Clear,350,2013-03-05 15:53:00
9:53 AM,19.9,12.0,71,30.36,10.0,NNW,8.1,-,N/A,,Clear,340,2013-03-05 16:53:00
10:53 AM,27.0,15.1,61,30.32,10.0,North,10.4,-,N/A,,Clear,350,2013-03-05 17:53:00
11:53 AM,30.0,18.0,61,30.30,10.0,North,12.7,-,N/A,,Clear,360,2013-03-05 18:53:00
12:53 PM,30.9,18.0,59,30.27,10.0,North,12.7,-,N/A,,Clear,360,2013-03-05 19:53:00
1:53 PM,33.1,17.1,52,30.23,10.0,NNE,10.4,-,N/A,,Clear,20,2013-03-05 20:53:00
2:53 PM,34.0,17.1,50,30.20,10.0,NNE,10.4,-,N/A,,Clear,20,2013-03-05 21:53:00
3:53 PM,34.0,18.0,52,30.17,10.0,NNE,11.5,-,N/A,,Clear,30,2013-03-05 22:53:00
4:53 PM,34.0,18.0,52,30.15,10.0,North,10.4,-,N/A,,Clear,10,2013-03-05 23:53:00
5:53 PM,32.0,19.0,59,30.14,10.0,North,9.2,-,N/A,,Clear,10,2013-03-06 00:53:00
6:53 PM,30.0,19.0,64,30.14,10.0,North,6.9,-,N/A,,Clear,350,2013-03-06 01:53:00
7:53 PM,28.9,18.0,64,30.14,10.0,North,5.8,-,N/A,,Clear,350,2013-03-06 02:53:00
8:53 PM,27.0,18.0,69,30.13,10.0,North,5.8,-,N/A,,Clear,350,2013-03-06 03:53:00
9:53 PM,25.0,17.1,72,30.11,10.0,North,5.8,-,N/A,,Clear,350,2013-03-06 04:53:00
10:53 PM,24.1,17.1,75,30.08,10.0,North,8.1,-,N/A,,Clear,360,2013-03-06 05:53:00
11:53 PM,21.9,17.1,82,30.05,10.0,North,4.6,-,N/A,,Clear,360,2013-03-06 06:53:00